213  
ASUS41 KALY 181310  
RWRALY  
 
NEW YORK STATE HOURLY WEATHER ROUNDUP  
NATIONAL WEATHER SERVICE ALBANY NY  
900 AM EDT THU APR 18 2019  
 
NOTE: "FAIR" INDICATES FEW OR NO CLOUDS BELOW 12,000 FEET WITH NO  
SIGNIFICANT WEATHER AND/OR NO S TO VISIBILITY
.  
 
NYZ032-033-038>043-046>054-057>066-NYZ062>081-082-084-181400-  
EAST  
 
 
CITY SKY/WX TMP DP RH WIND PRES REMARKS
 
ALBANY CLOUDY 50 32 50 S14G22 30.11F  
GLENS FALLS CLOUDY 45 39 79 S5 30.10F  
POUGHKEEPSIE CLOUDY 51 33 50 VRB5 30.14F  
NEWBURGH CLOUDY 50 37 62 S8G15 30.14F  
MONTGOMERY CLOUDY 50 37 61 S6 30.13F  
WHITE PLAINS PTSUNNY 50 35 56 SE12 30.14F  
NEW YORK CITY CLOUDY 54 39 57 SE12 30.14F  
CENTRAL PARK CLOUDY 54 39 57 MISG 30.17S  

 
 
NYZ005>009-017-018-044>046-055-056-181400-  
CENTRAL  
 
 
CITY SKY/WX TMP DP RH WIND PRES REMARKS
 
FULTON FAIR 58 43 57 S23G30 29.87F  
SYRACUSE PTSUNNY 58 42 55 SE16G25 29.90F  
ROME PTSUNNY 49 36 61 SE14 29.99S  
ELMIRA CLOUDY 55 45 68 S9 29.95F  
BINGHAMTON CLOUDY 48 39 71 S12G24 30.00R  
MONTICELLO CLOUDY 45 37 73 E10 30.11F  

 
 
NYZ026>034-041>043-087-181400-  
NORTH  
 
 
CITY SKY/WX TMP DP RH WIND PRES REMARKS
 
WATERTOWN CLOUDY 55 40 56 S23G32 29.80F  
FORT DRUM NOT AVBL  
OGDENSBURG CLOUDY 54 36 50 S14 29.84R  
MASSENA CLOUDY 46 40 79 E5 29.89F  
SARANAC LAKE CLOUDY 45 33 63 S13 29.90F  
PLATTSBURGH CLOUDY 45 34 65 S14G22 30.01F  

 
 
NYZ001>004-010>016-019>021-085-181400-  
WEST  
 
 
CITY SKY/WX TMP DP RH WIND PRES REMARKS
 
NIAGARA FALLS PTSUNNY 57 43 59 S21G26 29.72F  
BUFFALO PTSUNNY 60 45 57 S18 29.73F  
DUNKIRK LGT RAIN 60 43 53 S26G43 29.74F  
JAMESTOWN FAIR 54 43 66 S14G20 29.81  
WELLSVILLE FAIR 52 45 77 SE13G23 29.88F  
ROCHESTER CLOUDY 59 45 59 S15 29.78F  
PENN YAN FAIR 56 45 66 S21G33 29.88F  

 
 
KEY  
WCI = WIND CHILL INDEX  
VSB = VISIBILITY  
HX = HEAT INDEX  

 
 
 
CLICK HERE TO GO TO PREVIOUS BULLETINS.

The Nexlab NY Page
The Nexlab VT Page
The Nexlab MA Page
The Nexlab CT Page Main Text Page